Location: Bühlhof
(48.7849°N, 8.6361°E)
Time: 01:08:07
(UTC+00:00)

COSMOS 2455 - Pass Details

Date: 19 January 2026
Orbit: 899 x 909 km, 67.1° (Epoch: 18 February)

Event Time Altitude Azimuth Distance (km) Brightness Sun altitude
Rises 18:09:23 0° 325° (NW) 3,549 6.3 -20.4°
Reaches altitude 10° 18:11:55 10° 327° (NNW) 2,604 5.5 -20.8°
Maximum altitude 18:17:59 78° 54° (NE) 934 2.7 -21.8°
Enters shadow 18:21:14 29° 137° (SE) 1,609 3.8 -22.4°
